Flag for U.S.A. Weather past 2 weeks in Sheboygan, Wisconsin, U.S.A.

Now
79 °F

Passing clouds.


Feels Like: 80 °F
Forecast: 60 / 73 °F
Wind: 9 mph from Southwest

Location: Sheboygan County Memorial Airport

Current Time: Jul 5, 2015 at 12:36:40 PM

Latest Report: Jul 5, 2015 at 11:53 AM


Visibility: 10 mi

Pressure: 30.06 "Hg

Humidity: 56%

Dew point: 62 °F

Location of SheboyganLocation

Historic Weather in Sheboygan — Graph

°F

Sheboygan temperature yesterday

Maximum temperature yesterday: 80 °F (at 1:53 PM)
Minimum temperature yesterday: 59 °F (at 12:53 AM)
Average temperature yesterday: 69 °F

Past Weeks' High & Low Weather Summary

 TemperatureHumidityPressure
High83 °F (Jun 22, 3:53 PM)97% (Jun 22, 4:53 AM)30.14 "Hg (Jun 22, 4:53 AM)
Low46 °F (Jul 2, 12:02 AM)42% (Jun 24, 11:53 AM)29.61 "Hg (Jun 22, 2:53 PM)
Average65 °F74%29.94 "Hg
* Reported Jun 20 10:53 AM — Jul 5 10:53 AM, Sheboygan, Weather by CustomWeather, © 2015

Note: Actual official high and low records may vary slightly from our data, if they occured in-between our weather recording intervals... More about our weather records

Advertising

Sheboygan weather history for previous 24 hours

 ConditionsComfort  
Time TempWeatherWind HumidityBarometerVisibility
10:53 AM
Sun, Jul 5
78 °FSunny.8 mph60%30.05 "Hg10 mi
9:53 AM76 °FSunny.7 mph64%30.05 "Hg10 mi
8:53 AM73 °FSunny.6 mph71%30.06 "Hg10 mi
7:53 AM69 °FSunny.5 mph81%30.06 "Hg9 mi
6:53 AM64 °FFog.No wind90%30.06 "Hg4 mi
5:53 AM60 °FFog.No wind93%30.05 "Hg3 mi
4:53 AM60 °FFog.No wind93%30.03 "Hg6 mi
3:53 AM60 °FClear.No wind90%30.03 "Hg7 mi
2:53 AM60 °FClear.No wind90%30.03 "Hg9 mi
1:53 AM60 °FClear.3 mph90%30.03 "Hg9 mi
12:53 AM61 °FClear.3 mph87%30.01 "Hg10 mi
11:53 PM
Sat, Jul 4
61 °FClear.3 mph87%30.00 "Hg10 mi
10:53 PM62 °FClear.No wind83%30.00 "Hg10 mi
9:53 PM62 °FClear.No wind86%29.99 "Hg10 mi
8:53 PM69 °FSunny.No wind70%29.97 "Hg10 mi
7:53 PM71 °FPassing clouds.5 mph68%29.96 "Hg10 mi
6:53 PM74 °FPartly sunny.5 mph64%29.97 "Hg10 mi
5:53 PM75 °FPartly sunny.7 mph62%29.97 "Hg10 mi
4:53 PM77 °FBroken clouds.8 mph60%29.98 "Hg10 mi
3:53 PM77 °FScattered clouds.9 mph58%29.97 "Hg10 mi
2:53 PM80 °FPartly sunny.7 mph58%29.96 "Hg10 mi
1:53 PM80 °FPartly sunny.No wind51%29.96 "Hg10 mi
12:53 PM79 °FPartly sunny.7 mph54%29.97 "Hg10 mi
Weather by CustomWeather, © 2015

See weather overviewHow to use our weather pages